Flag for Canada Weather past 2 weeks in Winnipeg, Manitoba, Canada

Now
30 °F

Chilly.


Feels Like: 23 °F
Forecast: 14 / 31 °F
Wind: 7 mph from East

Location: Winnipeg The Forks

Current Time: Jan 28, 2015 at 8:57:29 AM

Latest Report: Jan 28, 2015 at 8:00 AM


Visibility: N/A

Pressure: 29.87 "Hg

Humidity: 96%

Dew point: 29 °F

Location of WinnipegLocation

Historic Weather in Winnipeg — Graph

°F

Winnipeg temperature yesterday

Maximum temperature yesterday: 33 °F (at 4:00 PM)
Minimum temperature yesterday: 22 °F (at 3:00 AM)
Average temperature yesterday: 27 °F

Past Weeks' High & Low Weather Summary

 TemperatureHumidityPressure
High40 °F (Jan 23, 3:00 PM)100% (Jan 20, 2:00 PM)30.37 "Hg (Jan 20, 2:00 PM)
Low-6 °F (Jan 13, 8:00 AM)62% (Jan 25, 11:00 AM)29.34 "Hg (Jan 17, 3:00 AM)
Average21 °F79%29.94 "Hg
* Reported Jan 13 7:00 AM — Jan 28 7:00 AM, Winnipeg, Weather by CustomWeather, © 2014

Note: Actual official high and low records may vary slightly from our data, if they occured in-between our weather recording intervals... More about our weather records

Advertising

Winnipeg weather history for previous 24 hours

 ConditionsComfort  
Time TempWeatherWind HumidityBarometerVisibility
7:00 AM
Jan 28
31 °FChilly.8 mph90%29.88 "HgN/A
6:00 AM29 °FChilly.9 mph96%29.90 "HgN/A
5:00 AM30 °FChilly.6 mph96%29.90 "HgN/A
4:00 AM29 °FChilly.8 mph96%29.90 "HgN/A
3:00 AM29 °FChilly.6 mph96%29.92 "HgN/A
2:00 AM29 °FChilly.6 mph95%29.92 "HgN/A
1:00 AM31 °FChilly.6 mph87%29.93 "HgN/A
12:00 AM30 °FChilly.6 mph98%29.94 "HgN/A
11:00 PM
Jan 27
30 °FChilly.5 mph88%29.95 "HgN/A
10:00 PM31 °FChilly.2 mph88%29.96 "HgN/A
9:00 PM31 °FChilly.3 mph87%29.97 "HgN/A
8:00 PM31 °FChilly.5 mph94%29.97 "HgN/A
7:00 PM33 °FChilly.3 mph81%29.96 "HgN/A
6:00 PM31 °FChilly.2 mph92%29.97 "HgN/A
5:00 PM31 °FChilly.2 mph84%29.97 "HgN/A
4:00 PM33 °FChilly.5 mph78%29.97 "HgN/A
3:00 PM30 °FChilly.5 mph86%29.97 "HgN/A
2:00 PM29 °FChilly.9 mph87%29.98 "HgN/A
1:00 PM29 °FChilly.6 mph87%29.98 "HgN/A
12:00 PM28 °FChilly.7 mph90%30.00 "HgN/A
11:00 AM27 °FChilly.3 mph94%30.03 "HgN/A
10:00 AM26 °FChilly.6 mph96%30.02 "HgN/A
9:00 AM25 °FChilly.5 mph94%30.03 "HgN/A
8:00 AM24 °FCold.6 mph94%30.03 "HgN/A
Weather by CustomWeather, © 2014

See weather overviewHow to use our weather pages